Location: Peach Mountain Observatory
(42.3967°N, 83.9367°W)
Time: 10:56:38
(UTC-04:00)

deb Explorer IX - Pass Details

Date: 27 January 2020
Orbit: 548 x 1100 km, 38.8° (Epoch: 08 April)

Event Time Altitude Azimuth Distance (km) Brightness Sun altitude
Rises 00:19:58 0° 268° (W) 3,835 - -65.4°
Reaches altitude 10° 00:22:41 10° 265° (W) 2,917 - -65.6°
Maximum altitude 00:29:51 66° 186° (S) 1,191 - -65.9°
Drops below altitude 10° 00:36:58 10° 106° (ESE) 2,893 - -66.1°
Sets 00:39:39 0° 103° (ESE) 3,802 - -66.1°
